COSMOS 249 DEB *

Satellite information

Favourite Embed

Satellite Type and Status

DEBRISIN ORBIT

Key statistics

Satellite COSMOS 249 DEB * at a glance.

Uptime

20655

Days in orbit

Revolutions

≈ 13.1

Per day

Orbit

LEO

Low Earth Orbit

Inclination

65.7

Latest

Satellite identification and parameters

Extended collection of information and parameters for COSMOS 249 DEB *.

Object identification

Identified? True

Debris? True

Object name: COSMOS 249 DEB *

International designator: 1968-091CG

Object number (NORAD): 6176

Object ID (CCSDS): 6176

Country: COMMONWEALTH OF INDEPENDENT STATES (CIS)

Current information (Y/N): Y

RCS size: SMALL

Orbital parameters

Period: 110.077 minutes

Inclination: 65.7278 deg

SMA: 7608.353 km

Apoapsis: 1588.782 km

Periapsis: 871.654 km

RAAN: 46.5849 deg

Eccentricy: 0.0471277

Argument of periapsis: 212.0604 deg

Mean anomaly: 145.0948 deg

Mean motion: 13.08177835 rev/day

Mean motion (dot): -0.00000345 rev/day2

B* drag term: -0.00047426 1/REarth

Two-line elements (TLE)

Creation date: May 9, 2025, 2:46 a.m.

Reference frame: TEME

Reference center: EARTH

Epoch: May 8, 2025, 4:28 a.m. UTC

TLE line 0: 0 COSMOS 249 DEB *

TLE line 1: 1 06176U 68091CG 25128.18651769 -.00000345 00000-0 -47426-3 0 9995

TLE line 2: 2 06176 65.7278 46.5849 0471277 212.0604 145.0948 13.08177835106209

Live tracking on map

Real-time ground track for satellite COSMOS 249 DEB *.

In-orbit conjunctions

A list of the most updated potential collisions computed for object COSMOS 249 DEB *.

Target Orbit TCA Probability of collision Miss distance Type
TRANSIT 2A LEO 2025-03-20 03:52:54 0.0001050711 988.0 (m) PAYLOAD

Associated space launch

The I2P satellites were the first soviet coorbital ASAT system.

COSMOS 249 DEB * was lifted into orbit during the mission ‘Tsiklon-2A | I2P 1’, on board a Tsiklon-2A space rocket.

The launch took place on Oct. 20, 1968, 4:02 a.m. from 90/20.

For more information about the launch, click the button.

Launch to space Tsiklon-2A | I2P 1
Tsiklon-2A | I2P 1

Agency: N/A

Status: Launch Successful

Launch date: Oct. 20, 1968, 4:02 a.m. UTC

Rocket: Tsiklon-2A

Launch pad: 90/20

Location: Baikonur Cosmodrome, Republic of Kazakhstan

...

Latest news about this satellite

There are no fresh news available about this satellite. Check back as we update our databases every day.


Newsletter sign-up

Weekly statistics, charts and insights to help you stay on top of the space industry.